Time,TemperatureF,DewpointF,PressureIn,WindDirection,WindDirectionDegrees,WindSpeedMPH,WindSpeedGustMPH,Humidity,HourlyPrecipIn,Conditions,Clouds,dailyrainin,SoftwareType,DateUTC
2013-06-21 00:01:00,60.8,54.0,30.34,WNW,292,3.3,8.2,78,0.00,,,0.00,Rainwise IP-100,2013-06-21 04:01:00,
2013-06-21 00:06:00,60.8,54.0,30.33,West,270,2.1,6.5,77,0.00,,,0.00,Rainwise IP-100,2013-06-21 04:06:00,
2013-06-21 00:11:00,60.8,54.0,30.33,WSW,247,5.1,9.3,77,0.00,,,0.00,Rainwise IP-100,2013-06-21 04:11:00,
2013-06-21 00:16:00,60.9,54.0,30.34,West,270,3.3,7.5,77,0.00,,,0.00,Rainwise IP-100,2013-06-21 04:16:00,
2013-06-21 00:21:00,61.0,54.0,30.33,West,270,4.7,5.1,77,0.00,,,0.00,Rainwise IP-100,2013-06-21 04:21:00,
2013-06-21 00:26:00,60.9,54.0,30.33,WNW,292,1.6,6.1,77,0.00,,,0.00,Rainwise IP-100,2013-06-21 04:26:00,
2013-06-21 00:31:00,60.8,54.0,30.33,West,270,3.0,6.5,77,0.00,,,0.00,Rainwise IP-100,2013-06-21 04:31:00,
2013-06-21 00:36:00,60.9,54.0,30.34,West,270,2.1,7.9,77,0.00,,,0.00,Rainwise IP-100,2013-06-21 04:36:00,
2013-06-21 00:41:00,60.9,53.5,30.34,WNW,292,2.6,4.9,76,0.00,,,0.00,Rainwise IP-100,2013-06-21 04:41:00,
2013-06-21 00:46:00,60.9,53.5,30.34,SSW,202,2.1,5.4,76,0.00,,,0.00,Rainwise IP-100,2013-06-21 04:46:00,
2013-06-21 00:51:00,60.9,53.5,30.34,WSW,247,4.0,6.8,76,0.00,,,0.00,Rainwise IP-100,2013-06-21 04:51:00,
2013-06-21 00:55:00,61.1,53.5,30.34,WNW,292,3.3,8.9,75,0.00,,,0.00,Rainwise IP-100,2013-06-21 04:55:00,
2013-06-21 01:00:00,61.2,53.0,30.34,West,270,3.3,6.8,74,0.00,,,0.00,Rainwise IP-100,2013-06-21 05:00:00,
2013-06-21 01:05:00,61.2,52.0,30.34,West,270,0.0,6.5,73,0.00,,,0.00,Rainwise IP-100,2013-06-21 05:05:00,
2013-06-21 01:10:00,61.3,53.0,30.34,WNW,292,4.7,6.8,72,0.00,,,0.00,Rainwise IP-100,2013-06-21 05:10:00,
2013-06-21 01:15:00,61.4,53.0,30.34,SSE,157,1.2,6.8,72,0.00,,,0.00,Rainwise IP-100,2013-06-21 05:15:00,
2013-06-21 01:20:00,61.4,52.0,30.34,WNW,292,1.9,6.1,71,0.00,,,0.00,Rainwise IP-100,2013-06-21 05:20:00,
2013-06-21 01:25:00,61.4,52.0,30.34,SSW,202,5.4,6.5,70,0.00,,,0.00,Rainwise IP-100,2013-06-21 05:25:00,
2013-06-21 01:30:00,61.4,51.0,30.34,WNW,292,2.3,7.0,69,0.00,,,0.00,Rainwise IP-100,2013-06-21 05:30:00,
2013-06-21 01:35:00,61.5,50.5,30.34,WNW,292,2.3,7.2,68,0.00,,,0.00,Rainwise IP-100,2013-06-21 05:35:00,
2013-06-21 01:40:00,61.7,50.5,30.34,WNW,292,4.0,7.2,68,0.00,,,0.00,Rainwise IP-100,2013-06-21 05:40:00,
2013-06-21 01:45:00,61.7,50.5,30.34,West,270,2.6,6.3,68,0.00,,,0.00,Rainwise IP-100,2013-06-21 05:45:00,
2013-06-21 01:50:00,61.7,50.5,30.34,WNW,292,4.9,7.2,68,0.00,,,0.00,Rainwise IP-100,2013-06-21 05:50:00,
2013-06-21 01:55:00,61.7,50.5,30.34,SSW,202,6.1,7.0,68,0.00,,,0.00,Rainwise IP-100,2013-06-21 05:55:00,
2013-06-21 02:00:00,61.7,51.0,30.33,WNW,292,5.6,7.9,69,0.00,,,0.00,Rainwise IP-100,2013-06-21 06:00:00,
2013-06-21 02:05:00,61.7,52.0,30.33,West,270,3.5,7.2,70,0.00,,,0.00,Rainwise IP-100,2013-06-21 06:05:00,
2013-06-21 02:10:00,61.6,52.0,30.33,WNW,292,3.3,5.4,71,0.00,,,0.00,Rainwise IP-100,2013-06-21 06:10:00,
2013-06-21 02:15:00,61.6,53.0,30.33,SW,225,3.5,6.8,72,0.00,,,0.00,Rainwise IP-100,2013-06-21 06:15:00,
2013-06-21 02:20:00,61.4,53.0,30.33,WNW,292,3.3,7.5,72,0.00,,,0.00,Rainwise IP-100,2013-06-21 06:20:00,
2013-06-21 02:25:00,61.3,53.0,30.33,SW,225,2.1,8.2,73,0.00,,,0.00,Rainwise IP-100,2013-06-21 06:25:00,
2013-06-21 02:30:00,61.3,53.5,30.32,SSW,202,2.8,8.6,74,0.00,,,0.00,Rainwise IP-100,2013-06-21 06:30:00,
2013-06-21 02:35:00,61.3,53.5,30.33,SW,225,2.3,6.8,74,0.00,,,0.00,Rainwise IP-100,2013-06-21 06:35:00,
2013-06-21 02:40:00,61.2,53.5,30.32,WSW,247,3.3,9.1,75,0.00,,,0.00,Rainwise IP-100,2013-06-21 06:40:00,
2013-06-21 02:45:00,61.2,53.5,30.33,WNW,292,2.8,8.9,75,0.00,,,0.00,Rainwise IP-100,2013-06-21 06:45:00,
2013-06-21 02:50:00,61.2,53.5,30.33,WNW,292,1.9,6.8,75,0.00,,,0.00,Rainwise IP-100,2013-06-21 06:50:00,
2013-06-21 02:55:00,61.1,53.5,30.32,SSW,202,4.4,7.2,75,0.00,,,0.00,Rainwise IP-100,2013-06-21 06:55:00,
2013-06-21 03:00:00,61.1,53.5,30.33,WNW,292,5.1,5.6,76,0.00,,,0.00,Rainwise IP-100,2013-06-21 07:00:00,
2013-06-21 03:05:00,61.2,54.0,30.33,West,270,4.9,8.2,77,0.00,,,0.00,Rainwise IP-100,2013-06-21 07:05:00,
2013-06-21 03:10:00,61.2,54.0,30.33,WNW,292,3.3,6.8,78,0.00,,,0.00,Rainwise IP-100,2013-06-21 07:10:00,
2013-06-21 03:15:00,61.2,54.5,30.34,WNW,292,1.6,6.8,80,0.00,,,0.00,Rainwise IP-100,2013-06-21 07:15:00,
2013-06-21 03:20:00,61.2,55.0,30.33,WSW,247,1.9,6.1,81,0.00,,,0.00,Rainwise IP-100,2013-06-21 07:20:00,
2013-06-21 03:25:00,61.2,55.0,30.33,WNW,292,1.4,6.3,82,0.00,,,0.00,Rainwise IP-100,2013-06-21 07:25:00,
2013-06-21 03:30:00,61.2,56.0,30.32,West,270,2.1,7.5,83,0.00,,,0.00,Rainwise IP-100,2013-06-21 07:30:00,
2013-06-21 03:35:00,61.2,56.0,30.33,WNW,292,1.9,5.4,83,0.00,,,0.00,Rainwise IP-100,2013-06-21 07:35:00,
2013-06-21 03:40:00,61.3,56.5,30.33,WNW,292,0.0,7.0,83,0.00,,,0.00,Rainwise IP-100,2013-06-21 07:40:00,
2013-06-21 03:45:00,61.3,56.5,30.33,WNW,292,1.4,4.7,83,0.00,,,0.00,Rainwise IP-100,2013-06-21 07:45:00,
2013-06-21 03:50:00,61.2,56.0,30.33,WNW,292,2.6,5.8,83,0.00,,,0.00,Rainwise IP-100,2013-06-21 07:50:00,
2013-06-21 03:55:00,61.2,56.0,30.33,WSW,247,6.8,7.5,83,0.00,,,0.00,Rainwise IP-100,2013-06-21 07:55:00,
2013-06-21 04:00:00,61.3,56.5,30.33,West,270,4.7,7.0,83,0.00,,,0.00,Rainwise IP-100,2013-06-21 08:00:00,
2013-06-21 04:05:00,61.4,56.5,30.32,WSW,247,2.3,7.7,84,0.00,,,0.00,Rainwise IP-100,2013-06-21 08:05:00,
2013-06-21 04:10:00,61.3,56.5,30.32,WNW,292,0.0,5.8,84,0.00,,,0.00,Rainwise IP-100,2013-06-21 08:10:00,
2013-06-21 04:15:00,61.2,56.0,30.32,WNW,292,3.5,5.4,84,0.00,,,0.00,Rainwise IP-100,2013-06-21 08:15:00,
2013-06-21 04:20:00,61.1,56.5,30.32,SSW,202,3.3,6.1,85,0.00,,,0.00,Rainwise IP-100,2013-06-21 08:20:00,
2013-06-21 04:25:00,61.0,56.5,30.32,West,270,5.1,10.0,85,0.00,,,0.00,Rainwise IP-100,2013-06-21 08:25:00,
2013-06-21 04:30:00,61.1,56.5,30.32,WSW,247,2.3,7.7,85,0.00,,,0.00,Rainwise IP-100,2013-06-21 08:30:00,
2013-06-21 04:35:00,61.1,56.0,30.32,WNW,292,1.9,7.0,84,0.00,,,0.00,Rainwise IP-100,2013-06-21 08:35:00,
2013-06-21 04:40:00,61.1,56.0,30.32,WNW,292,3.0,4.9,83,0.00,,,0.00,Rainwise IP-100,2013-06-21 08:40:00,
2013-06-21 04:45:00,61.0,56.0,30.32,WNW,292,4.2,9.8,83,0.00,,,0.00,Rainwise IP-100,2013-06-21 08:45:00,
2013-06-21 04:50:00,61.1,55.0,30.33,WNW,292,4.0,7.2,82,0.00,,,0.00,Rainwise IP-100,2013-06-21 08:50:00,
2013-06-21 04:55:00,61.1,55.0,30.33,WSW,247,2.8,8.2,81,0.00,,,0.00,Rainwise IP-100,2013-06-21 08:55:00,
2013-06-21 05:00:00,61.1,55.0,30.33,West,270,2.8,8.4,81,0.00,,,0.00,Rainwise IP-100,2013-06-21 09:00:00,
2013-06-21 05:05:00,61.1,55.0,30.33,SSW,202,5.1,8.2,81,0.00,,,0.00,Rainwise IP-100,2013-06-21 09:05:00,
2013-06-21 05:10:00,61.1,55.0,30.33,WNW,292,3.0,5.8,81,0.00,,,0.00,Rainwise IP-100,2013-06-21 09:10:00,
2013-06-21 05:15:00,61.0,55.0,30.33,SSW,202,4.4,5.8,81,0.00,,,0.00,Rainwise IP-100,2013-06-21 09:15:00,
2013-06-21 05:20:00,61.0,55.0,30.33,WNW,292,2.3,6.3,82,0.00,,,0.00,Rainwise IP-100,2013-06-21 09:20:00,
2013-06-21 05:25:00,61.0,55.0,30.33,SSW,202,4.2,5.8,82,0.00,,,0.00,Rainwise IP-100,2013-06-21 09:25:00,
2013-06-21 05:30:00,61.1,56.0,30.33,West,270,3.3,7.9,83,0.00,,,0.00,Rainwise IP-100,2013-06-21 09:30:00,
2013-06-21 05:35:00,61.2,56.0,30.33,WSW,247,2.6,8.4,83,0.00,,,0.00,Rainwise IP-100,2013-06-21 09:35:00,
2013-06-21 05:40:00,61.2,56.0,30.34,WNW,292,1.9,6.1,84,0.00,,,0.00,Rainwise IP-100,2013-06-21 09:40:00,
2013-06-21 05:45:00,61.2,56.0,30.34,SW,225,2.6,12.1,84,0.00,,,0.00,Rainwise IP-100,2013-06-21 09:45:00,
2013-06-21 05:50:00,61.4,56.5,30.33,West,270,0.0,6.8,84,0.00,,,0.00,Rainwise IP-100,2013-06-21 09:50:00,
2013-06-21 05:55:00,61.5,56.5,30.34,WNW,292,1.4,10.0,84,0.00,,,0.00,Rainwise IP-100,2013-06-21 09:55:00,
2013-06-21 06:00:00,61.6,56.5,30.33,WNW,292,1.4,7.7,84,0.00,,,0.00,Rainwise IP-100,2013-06-21 10:00:00,
2013-06-21 06:05:00,61.7,56.5,30.34,WNW,292,0.0,7.5,84,0.00,,,0.00,Rainwise IP-100,2013-06-21 10:05:00,
2013-06-21 06:10:00,61.7,56.5,30.34,WNW,292,6.3,6.3,84,0.00,,,0.00,Rainwise IP-100,2013-06-21 10:10:00,
2013-06-21 06:15:00,61.8,57.0,30.34,WSW,247,1.6,7.5,84,0.00,,,0.00,Rainwise IP-100,2013-06-21 10:15:00,
2013-06-21 06:20:00,62.1,56.5,30.34,WSW,247,2.6,7.9,83,0.00,,,0.00,Rainwise IP-100,2013-06-21 10:20:00,
2013-06-21 06:25:00,62.2,56.5,30.33,WSW,247,6.1,9.3,83,0.00,,,0.00,Rainwise IP-100,2013-06-21 10:25:00,
2013-06-21 06:30:00,62.3,57.0,30.34,WNW,292,4.2,7.9,83,0.00,,,0.00,Rainwise IP-100,2013-06-21 10:30:00,
2013-06-21 06:35:00,62.4,57.0,30.34,WNW,292,6.8,6.8,83,0.00,,,0.00,Rainwise IP-100,2013-06-21 10:35:00,
2013-06-21 06:40:00,62.5,57.0,30.34,WNW,292,4.0,9.8,83,0.00,,,0.00,Rainwise IP-100,2013-06-21 10:40:00,
2013-06-21 06:45:00,62.7,57.0,30.34,West,270,4.7,8.4,83,0.00,,,0.00,Rainwise IP-100,2013-06-21 10:45:00,
2013-06-21 06:50:00,62.9,57.5,30.34,WNW,292,6.8,8.6,82,0.00,,,0.00,Rainwise IP-100,2013-06-21 10:50:00,
2013-06-21 06:55:00,63.2,57.5,30.34,West,270,2.6,11.7,82,0.00,,,0.00,Rainwise IP-100,2013-06-21 10:55:00,
2013-06-21 07:00:00,63.5,57.5,30.34,West,270,5.1,8.4,82,0.00,,,0.00,Rainwise IP-100,2013-06-21 11:00:00,
2013-06-21 07:05:00,63.7,57.5,30.34,WNW,292,5.8,11.9,81,0.00,,,0.00,Rainwise IP-100,2013-06-21 11:05:00,
2013-06-21 07:10:00,63.8,57.5,30.34,WNW,292,6.1,15.4,80,0.00,,,0.00,Rainwise IP-100,2013-06-21 11:10:00,
2013-06-21 07:15:00,64.0,57.5,30.34,WNW,292,5.1,13.3,80,0.00,,,0.00,Rainwise IP-100,2013-06-21 11:15:00,
2013-06-21 07:20:00,64.1,57.0,30.34,WSW,247,7.9,11.4,79,0.00,,,0.00,Rainwise IP-100,2013-06-21 11:20:00,
2013-06-21 07:25:00,64.2,57.0,30.34,WNW,292,4.7,11.2,79,0.00,,,0.00,Rainwise IP-100,2013-06-21 11:25:00,
2013-06-21 07:30:00,64.4,57.5,30.34,WNW,292,11.4,11.4,79,0.00,,,0.00,Rainwise IP-100,2013-06-21 11:30:00,
2013-06-21 07:35:00,64.5,57.5,30.34,SSW,202,5.8,13.3,79,0.00,,,0.00,Rainwise IP-100,2013-06-21 11:35:00,
2013-06-21 07:38:00,64.4,57.5,30.34,WSW,247,3.5,14.5,78,0.00,,,0.00,Rainwise IP-100,2013-06-21 11:38:00,
2013-06-21 07:43:00,64.6,57.5,30.34,WNW,292,3.7,12.6,78,0.00,,,0.00,Rainwise IP-100,2013-06-21 11:43:00,
2013-06-21 07:48:00,64.8,57.5,30.34,SSW,202,9.6,14.9,77,0.00,,,0.00,Rainwise IP-100,2013-06-21 11:48:00,
2013-06-21 07:53:00,64.9,57.0,30.34,WNW,292,6.8,13.5,76,0.00,,,0.00,Rainwise IP-100,2013-06-21 11:53:00,
2013-06-21 07:58:00,65.0,57.0,30.34,SSW,202,3.7,12.1,76,0.00,,,0.00,Rainwise IP-100,2013-06-21 11:58:00,
2013-06-21 08:03:00,65.3,57.0,30.34,SW,225,4.7,9.8,75,0.00,,,0.00,Rainwise IP-100,2013-06-21 12:03:00,
2013-06-21 08:08:00,65.4,57.0,30.33,WNW,292,7.7,12.4,74,0.00,,,0.00,Rainwise IP-100,2013-06-21 12:08:00,
2013-06-21 08:13:00,65.5,56.5,30.34,SW,225,5.1,11.0,73,0.00,,,0.00,Rainwise IP-100,2013-06-21 12:13:00,
2013-06-21 08:18:00,65.6,56.0,30.33,SSW,202,1.6,11.9,71,0.00,,,0.00,Rainwise IP-100,2013-06-21 12:18:00,
2013-06-21 08:23:00,66.0,56.0,30.34,WNW,292,6.5,8.9,70,0.00,,,0.00,Rainwise IP-100,2013-06-21 12:23:00,
2013-06-21 08:28:00,66.4,55.0,30.34,WSW,247,3.0,12.6,68,0.00,,,0.00,Rainwise IP-100,2013-06-21 12:28:00,
2013-06-21 08:33:00,66.5,55.0,30.34,WNW,292,6.1,8.9,66,0.00,,,0.00,Rainwise IP-100,2013-06-21 12:33:00,
2013-06-21 08:36:00,66.6,54.5,30.34,NW,315,5.6,11.0,65,0.00,,,0.00,Rainwise IP-100,2013-06-21 12:36:00,
2013-06-21 08:41:00,66.6,54.0,30.34,SSW,202,3.0,11.9,63,0.00,,,0.00,Rainwise IP-100,2013-06-21 12:41:00,
2013-06-21 08:46:00,66.8,53.5,30.34,WNW,292,2.8,17.5,62,0.00,,,0.00,Rainwise IP-100,2013-06-21 12:46:00,
2013-06-21 08:51:00,67.0,53.5,30.33,WNW,292,3.5,12.4,61,0.00,,,0.00,Rainwise IP-100,2013-06-21 12:51:00,
2013-06-21 08:56:00,67.1,53.5,30.34,WNW,292,4.9,11.2,61,0.00,,,0.00,Rainwise IP-100,2013-06-21 12:56:00,
2013-06-21 09:01:00,67.1,53.0,30.33,NNW,337,1.9,19.1,60,0.00,,,0.00,Rainwise IP-100,2013-06-21 13:01:00,
2013-06-21 09:06:00,67.3,53.5,30.33,West,270,5.6,11.2,60,0.00,,,0.00,Rainwise IP-100,2013-06-21 13:06:00,
2013-06-21 09:11:00,67.3,53.5,30.33,WNW,292,7.2,15.4,60,0.00,,,0.00,Rainwise IP-100,2013-06-21 13:11:00,
2013-06-21 09:16:00,67.3,53.5,30.33,WSW,247,10.0,13.8,60,0.00,,,0.00,Rainwise IP-100,2013-06-21 13:16:00,
2013-06-21 09:21:00,67.4,53.5,30.33,WNW,292,4.9,14.2,60,0.00,,,0.00,Rainwise IP-100,2013-06-21 13:21:00,
2013-06-21 09:26:00,67.7,53.5,30.33,WNW,292,4.4,11.2,60,0.00,,,0.00,Rainwise IP-100,2013-06-21 13:26:00,
2013-06-21 09:31:00,68.0,53.5,30.32,WNW,292,2.1,12.8,60,0.00,,,0.00,Rainwise IP-100,2013-06-21 13:31:00,
2013-06-21 09:36:00,68.1,53.5,30.32,West,270,6.5,12.6,59,0.00,,,0.00,Rainwise IP-100,2013-06-21 13:36:00,
2013-06-21 09:41:00,68.2,53.5,30.32,WNW,292,7.9,13.1,59,0.00,,,0.00,Rainwise IP-100,2013-06-21 13:41:00,
2013-06-21 09:46:00,68.2,53.0,30.33,WNW,292,10.3,10.5,58,0.00,,,0.00,Rainwise IP-100,2013-06-21 13:46:00,
2013-06-21 09:51:00,68.4,53.5,30.33,WNW,292,9.8,11.4,58,0.00,,,0.00,Rainwise IP-100,2013-06-21 13:51:00,
2013-06-21 09:56:00,68.7,53.0,30.32,WNW,292,5.8,16.1,57,0.00,,,0.00,Rainwise IP-100,2013-06-21 13:56:00,
2013-06-21 10:01:00,68.8,52.0,30.32,WNW,292,5.8,11.4,55,0.00,,,0.00,Rainwise IP-100,2013-06-21 14:01:00,
2013-06-21 10:06:00,68.8,51.0,30.32,SSW,202,3.0,12.6,53,0.00,,,0.00,Rainwise IP-100,2013-06-21 14:06:00,
2013-06-21 10:11:00,68.9,50.5,30.32,WNW,292,5.6,13.8,52,0.00,,,0.00,Rainwise IP-100,2013-06-21 14:11:00,
2013-06-21 10:16:00,69.1,50.0,30.33,SW,225,11.2,14.0,51,0.00,,,0.00,Rainwise IP-100,2013-06-21 14:16:00,
2013-06-21 10:21:00,69.2,50.5,30.32,WNW,292,7.2,12.1,51,0.00,,,0.00,Rainwise IP-100,2013-06-21 14:21:00,
2013-06-21 10:26:00,69.3,50.0,30.33,WNW,292,7.5,12.1,50,0.00,,,0.00,Rainwise IP-100,2013-06-21 14:26:00,
2013-06-21 10:31:00,69.3,49.0,30.33,WNW,292,10.7,16.1,49,0.00,,,0.00,Rainwise IP-100,2013-06-21 14:31:00,
2013-06-21 10:36:00,69.2,49.0,30.32,WNW,292,7.9,14.0,49,0.00,,,0.00,Rainwise IP-100,2013-06-21 14:36:00,
2013-06-21 10:41:00,69.4,49.0,30.33,WNW,292,8.9,14.2,49,0.00,,,0.00,Rainwise IP-100,2013-06-21 14:41:00,
2013-06-21 10:46:00,69.4,50.0,30.33,WNW,292,6.3,14.5,50,0.00,,,0.00,Rainwise IP-100,2013-06-21 14:46:00,
2013-06-21 10:51:00,69.3,50.0,30.33,WSW,247,5.1,14.7,50,0.00,,,0.00,Rainwise IP-100,2013-06-21 14:51:00,
2013-06-21 10:56:00,69.2,50.0,30.33,WNW,292,9.1,16.8,50,0.00,,,0.00,Rainwise IP-100,2013-06-21 14:56:00,
2013-06-21 11:01:00,69.1,50.0,30.33,WNW,292,4.7,14.7,51,0.00,,,0.00,Rainwise IP-100,2013-06-21 15:01:00,
2013-06-21 11:06:00,69.2,50.5,30.34,SW,225,8.6,13.3,52,0.00,,,0.00,Rainwise IP-100,2013-06-21 15:06:00,
2013-06-21 11:11:00,69.4,50.5,30.33,WNW,292,1.9,11.2,52,0.00,,,0.00,Rainwise IP-100,2013-06-21 15:11:00,
2013-06-21 11:16:00,69.3,50.5,30.33,WNW,292,5.6,14.0,52,0.00,,,0.00,Rainwise IP-100,2013-06-21 15:16:00,
2013-06-21 11:21:00,69.3,50.5,30.33,WSW,247,4.9,13.5,52,0.00,,,0.00,Rainwise IP-100,2013-06-21 15:21:00,
2013-06-21 11:26:00,69.6,51.0,30.33,WNW,292,3.3,14.9,52,0.00,,,0.00,Rainwise IP-100,2013-06-21 15:26:00,
2013-06-21 11:31:00,69.9,52.0,30.33,WNW,292,5.1,10.3,53,0.00,,,0.00,Rainwise IP-100,2013-06-21 15:31:00,
2013-06-21 11:37:00,69.9,51.0,30.33,WNW,292,5.6,14.9,52,0.00,,,0.00,Rainwise IP-100,2013-06-21 15:37:00,
2013-06-21 11:42:00,69.8,51.0,30.33,WSW,247,1.6,16.1,52,0.00,,,0.00,Rainwise IP-100,2013-06-21 15:42:00,
2013-06-21 11:47:00,69.9,51.0,30.34,WSW,247,7.2,13.8,52,0.00,,,0.00,Rainwise IP-100,2013-06-21 15:47:00,
2013-06-21 11:52:00,70.0,51.0,30.33,WNW,292,14.2,15.4,52,0.00,,,0.00,Rainwise IP-100,2013-06-21 15:52:00,
2013-06-21 11:57:00,70.0,52.0,30.34,SSW,202,7.0,14.2,53,0.00,,,0.00,Rainwise IP-100,2013-06-21 15:57:00,
2013-06-21 12:02:00,70.0,52.0,30.33,SSW,202,7.5,13.5,53,0.00,,,0.00,Rainwise IP-100,2013-06-21 16:02:00,
2013-06-21 12:07:00,69.8,51.0,30.34,WNW,292,7.5,14.2,52,0.00,,,0.00,Rainwise IP-100,2013-06-21 16:07:00,
2013-06-21 12:12:00,69.5,52.0,30.33,WNW,292,8.2,16.8,53,0.00,,,0.00,Rainwise IP-100,2013-06-21 16:12:00,
2013-06-21 12:17:00,69.6,52.0,30.34,WNW,292,4.9,15.4,53,0.00,,,0.00,Rainwise IP-100,2013-06-21 16:17:00,
2013-06-21 12:22:00,69.9,52.0,30.33,WNW,292,9.3,13.3,53,0.00,,,0.00,Rainwise IP-100,2013-06-21 16:22:00,
2013-06-21 12:27:00,70.3,52.0,30.33,WNW,292,11.4,14.0,52,0.00,,,0.00,Rainwise IP-100,2013-06-21 16:27:00,
2013-06-21 12:32:00,70.5,52.0,30.34,WNW,292,10.3,17.0,52,0.00,,,0.00,Rainwise IP-100,2013-06-21 16:32:00,
2013-06-21 12:37:00,70.4,51.0,30.33,SSW,202,4.2,16.1,51,0.00,,,0.00,Rainwise IP-100,2013-06-21 16:37:00,
2013-06-21 12:42:00,70.4,51.0,30.33,SSW,202,9.3,14.9,50,0.00,,,0.00,Rainwise IP-100,2013-06-21 16:42:00,
2013-06-21 12:47:00,70.7,51.0,30.32,WNW,292,4.4,15.2,51,0.00,,,0.00,Rainwise IP-100,2013-06-21 16:47:00,
2013-06-21 12:52:00,70.9,52.0,30.33,West,270,7.9,17.3,51,0.00,,,0.00,Rainwise IP-100,2013-06-21 16:52:00,
2013-06-21 12:57:00,70.9,53.0,30.33,WSW,247,9.8,17.0,52,0.00,,,0.00,Rainwise IP-100,2013-06-21 16:57:00,
2013-06-21 13:02:00,71.1,53.0,30.33,WNW,292,13.1,13.5,53,0.00,,,0.00,Rainwise IP-100,2013-06-21 17:02:00,
2013-06-21 13:07:00,71.3,53.5,30.33,West,270,5.4,13.1,53,0.00,,,0.00,Rainwise IP-100,2013-06-21 17:07:00,
2013-06-21 13:12:00,71.2,53.0,30.33,SSW,202,5.4,13.5,52,0.00,,,0.00,Rainwise IP-100,2013-06-21 17:12:00,
2013-06-21 13:17:00,71.2,53.0,30.32,WSW,247,9.1,13.3,52,0.00,,,0.00,Rainwise IP-100,2013-06-21 17:17:00,
2013-06-21 13:22:00,71.2,53.0,30.32,SSW,202,11.2,14.7,52,0.00,,,0.00,Rainwise IP-100,2013-06-21 17:22:00,
2013-06-21 13:27:00,71.4,53.0,30.32,WSW,247,4.9,16.6,52,0.00,,,0.00,Rainwise IP-100,2013-06-21 17:27:00,
2013-06-21 13:32:00,71.4,52.0,30.32,WNW,292,6.1,15.2,51,0.00,,,0.00,Rainwise IP-100,2013-06-21 17:32:00,
2013-06-21 13:37:00,71.3,52.0,30.33,SW,225,8.6,14.2,51,0.00,,,0.00,Rainwise IP-100,2013-06-21 17:37:00,
2013-06-21 13:42:00,71.5,52.0,30.33,WSW,247,4.9,13.5,50,0.00,,,0.00,Rainwise IP-100,2013-06-21 17:42:00,
2013-06-21 13:46:00,71.6,52.0,30.32,SSW,202,8.9,13.8,50,0.00,,,0.00,Rainwise IP-100,2013-06-21 17:46:00,
2013-06-21 13:51:00,71.4,52.0,30.32,WSW,247,6.1,16.8,50,0.00,,,0.00,Rainwise IP-100,2013-06-21 17:51:00,
2013-06-21 13:56:00,71.3,52.0,30.32,West,270,8.2,15.4,51,0.00,,,0.00,Rainwise IP-100,2013-06-21 17:56:00,
2013-06-21 14:01:00,71.5,53.0,30.31,WNW,292,15.2,15.2,51,0.00,,,0.00,Rainwise IP-100,2013-06-21 18:01:00,
2013-06-21 14:06:00,71.7,53.0,30.32,WSW,247,5.8,17.3,51,0.00,,,0.00,Rainwise IP-100,2013-06-21 18:06:00,
2013-06-21 14:11:00,71.7,52.0,30.31,SSE,157,7.7,13.8,50,0.00,,,0.00,Rainwise IP-100,2013-06-21 18:11:00,
2013-06-21 14:16:00,71.5,52.0,30.31,WNW,292,7.7,23.1,50,0.00,,,0.00,Rainwise IP-100,2013-06-21 18:16:00,
2013-06-21 14:21:00,71.9,53.0,30.31,SSW,202,2.6,15.6,51,0.00,,,0.00,Rainwise IP-100,2013-06-21 18:21:00,
2013-06-21 14:23:00,72.3,53.5,30.31,WNW,292,6.1,14.9,51,0.00,,,0.00,Rainwise IP-100,2013-06-21 18:23:00,
2013-06-21 14:28:00,72.5,53.5,30.31,WNW,292,5.4,16.1,51,0.00,,,0.00,Rainwise IP-100,2013-06-21 18:28:00,
2013-06-21 14:33:00,72.8,53.5,30.31,WNW,292,6.1,15.2,51,0.00,,,0.00,Rainwise IP-100,2013-06-21 18:33:00,
2013-06-21 14:38:00,72.7,53.5,30.30,WNW,292,3.5,15.9,51,0.00,,,0.00,Rainwise IP-100,2013-06-21 18:38:00,
2013-06-21 14:43:00,72.5,53.5,30.31,WNW,292,12.1,17.3,51,0.00,,,0.00,Rainwise IP-100,2013-06-21 18:43:00,
2013-06-21 14:45:00,72.5,53.5,30.30,WNW,292,11.7,15.6,51,0.00,,,0.00,Rainwise IP-100,2013-06-21 18:45:00,
2013-06-21 14:47:00,72.5,53.5,30.31,WNW,292,7.0,15.6,51,0.00,,,0.00,Rainwise IP-100,2013-06-21 18:47:00,
2013-06-21 14:51:00,72.5,53.5,30.30,WSW,247,4.4,13.3,51,0.00,,,0.00,Rainwise IP-100,2013-06-21 18:51:00,
2013-06-21 14:56:00,72.5,53.5,30.30,West,270,5.8,15.4,51,0.00,,,0.00,Rainwise IP-100,2013-06-21 18:56:00,
2013-06-21 15:01:00,72.5,53.5,30.30,SW,225,2.3,14.5,50,0.00,,,0.00,Rainwise IP-100,2013-06-21 19:01:00,
2013-06-21 15:06:00,72.4,52.0,30.30,West,270,5.8,14.9,49,0.00,,,0.00,Rainwise IP-100,2013-06-21 19:06:00,
2013-06-21 15:07:00,72.4,53.0,30.30,NNW,337,6.5,14.9,50,0.00,,,0.00,Rainwise IP-100,2013-06-21 19:07:00,
2013-06-21 15:12:00,72.3,53.0,30.30,WNW,292,6.3,15.2,50,0.00,,,0.00,Rainwise IP-100,2013-06-21 19:12:00,
2013-06-21 15:17:00,72.3,53.0,30.30,WNW,292,4.2,18.9,50,0.00,,,0.00,Rainwise IP-100,2013-06-21 19:17:00,
2013-06-21 15:22:00,72.2,53.0,30.29,West,270,12.4,14.5,50,0.00,,,0.00,Rainwise IP-100,2013-06-21 19:22:00,
2013-06-21 15:27:00,72.3,52.0,30.29,WNW,292,6.3,16.6,49,0.00,,,0.00,Rainwise IP-100,2013-06-21 19:27:00,
2013-06-21 15:31:00,72.2,52.0,30.29,WNW,292,9.8,14.2,49,0.00,,,0.00,Rainwise IP-100,2013-06-21 19:31:00,
2013-06-21 15:36:00,71.8,51.0,30.29,WNW,292,8.6,15.6,49,0.00,,,0.00,Rainwise IP-100,2013-06-21 19:36:00,
2013-06-21 15:41:00,71.6,51.0,30.30,WSW,247,5.6,21.7,49,0.00,,,0.00,Rainwise IP-100,2013-06-21 19:41:00,
2013-06-21 15:46:00,71.6,52.0,30.29,West,270,14.5,15.4,50,0.00,,,0.00,Rainwise IP-100,2013-06-21 19:46:00,
2013-06-21 15:51:00,71.4,52.0,30.30,WNW,292,11.0,20.1,50,0.00,,,0.00,Rainwise IP-100,2013-06-21 19:51:00,
2013-06-21 15:56:00,71.3,52.0,30.30,WSW,247,12.1,17.7,50,0.00,,,0.00,Rainwise IP-100,2013-06-21 19:56:00,
2013-06-21 16:01:00,71.3,52.0,30.30,WNW,292,8.6,13.8,50,0.00,,,0.00,Rainwise IP-100,2013-06-21 20:01:00,
2013-06-21 16:06:00,71.4,52.0,30.30,WNW,292,4.0,14.5,51,0.00,,,0.00,Rainwise IP-100,2013-06-21 20:06:00,
2013-06-21 16:11:00,71.4,52.0,30.30,WNW,292,4.2,14.0,50,0.00,,,0.00,Rainwise IP-100,2013-06-21 20:11:00,
2013-06-21 16:16:00,71.4,52.0,30.29,WNW,292,5.4,16.8,50,0.00,,,0.00,Rainwise IP-100,2013-06-21 20:16:00,
2013-06-21 16:21:00,71.4,52.0,30.29,WNW,292,7.0,13.8,50,0.00,,,0.00,Rainwise IP-100,2013-06-21 20:21:00,
2013-06-21 16:26:00,71.4,52.0,30.29,WNW,292,8.6,15.9,51,0.00,,,0.00,Rainwise IP-100,2013-06-21 20:26:00,
2013-06-21 16:31:00,71.5,53.0,30.29,West,270,11.2,11.2,51,0.00,,,0.00,Rainwise IP-100,2013-06-21 20:31:00,
2013-06-21 16:36:00,71.4,52.0,30.29,WNW,292,6.8,20.5,51,0.00,,,0.00,Rainwise IP-100,2013-06-21 20:36:00,
2013-06-21 16:41:00,71.0,52.0,30.29,WSW,247,2.3,14.0,51,0.00,,,0.00,Rainwise IP-100,2013-06-21 20:41:00,
2013-06-21 16:46:00,70.9,52.0,30.29,West,270,8.4,15.9,51,0.00,,,0.00,Rainwise IP-100,2013-06-21 20:46:00,
2013-06-21 16:51:00,71.0,52.0,30.29,NW,315,10.3,14.7,51,0.00,,,0.00,Rainwise IP-100,2013-06-21 20:51:00,
2013-06-21 16:56:00,71.0,52.0,30.29,West,270,4.4,15.9,51,0.00,,,0.00,Rainwise IP-100,2013-06-21 20:56:00,
2013-06-21 17:01:00,70.5,51.0,30.29,WNW,292,8.6,16.3,51,0.00,,,0.00,Rainwise IP-100,2013-06-21 21:01:00,
2013-06-21 17:06:00,70.4,51.0,30.29,WSW,247,2.3,14.2,51,0.00,,,0.00,Rainwise IP-100,2013-06-21 21:06:00,
2013-06-21 17:11:00,70.6,52.0,30.29,WNW,292,7.9,15.2,52,0.00,,,0.00,Rainwise IP-100,2013-06-21 21:11:00,
2013-06-21 17:16:00,70.5,52.0,30.29,WNW,292,7.5,11.9,52,0.00,,,0.00,Rainwise IP-100,2013-06-21 21:16:00,
2013-06-21 17:21:00,70.5,52.0,30.28,WSW,247,8.4,16.1,52,0.00,,,0.00,Rainwise IP-100,2013-06-21 21:21:00,
2013-06-21 17:26:00,70.6,52.0,30.28,WNW,292,7.5,12.4,52,0.00,,,0.00,Rainwise IP-100,2013-06-21 21:26:00,
2013-06-21 17:31:00,70.8,53.0,30.28,WNW,292,6.3,12.4,52,0.00,,,0.00,Rainwise IP-100,2013-06-21 21:31:00,
2013-06-21 17:36:00,70.7,53.0,30.28,SW,225,2.6,12.1,53,0.00,,,0.00,Rainwise IP-100,2013-06-21 21:36:00,
2013-06-21 17:41:00,70.6,53.0,30.28,SW,225,5.8,12.4,53,0.00,,,0.00,Rainwise IP-100,2013-06-21 21:41:00,
2013-06-21 17:46:00,70.8,53.0,30.28,WNW,292,5.8,11.2,53,0.00,,,0.00,Rainwise IP-100,2013-06-21 21:46:00,
2013-06-21 17:51:00,71.0,53.5,30.28,WSW,247,2.3,11.7,54,0.00,,,0.00,Rainwise IP-100,2013-06-21 21:51:00,
2013-06-21 17:56:00,70.9,53.5,30.28,WNW,292,6.5,12.1,54,0.00,,,0.00,Rainwise IP-100,2013-06-21 21:56:00,
2013-06-21 18:01:00,70.7,53.0,30.28,West,270,4.9,12.6,53,0.00,,,0.00,Rainwise IP-100,2013-06-21 22:01:00,
2013-06-21 18:06:00,70.6,53.0,30.29,ENE,67,3.3,14.2,53,0.00,,,0.00,Rainwise IP-100,2013-06-21 22:06:00,
2013-06-21 18:11:00,70.5,52.0,30.29,WNW,292,3.0,11.4,52,0.00,,,0.00,Rainwise IP-100,2013-06-21 22:11:00,
2013-06-21 18:16:00,70.6,51.0,30.29,WNW,292,6.1,12.6,51,0.00,,,0.00,Rainwise IP-100,2013-06-21 22:16:00,
2013-06-21 18:21:00,70.5,51.0,30.29,NW,315,4.7,10.5,51,0.00,,,0.00,Rainwise IP-100,2013-06-21 22:21:00,
2013-06-21 18:26:00,70.3,51.0,30.29,West,270,5.6,14.2,51,0.00,,,0.00,Rainwise IP-100,2013-06-21 22:26:00,
2013-06-21 18:31:00,69.9,51.0,30.29,WSW,247,8.6,14.5,51,0.00,,,0.00,Rainwise IP-100,2013-06-21 22:31:00,
2013-06-21 18:36:00,69.6,51.0,30.29,West,270,8.4,12.6,52,0.00,,,0.00,Rainwise IP-100,2013-06-21 22:36:00,
2013-06-21 18:41:00,69.6,52.0,30.30,SW,225,1.4,11.2,53,0.00,,,0.00,Rainwise IP-100,2013-06-21 22:41:00,
2013-06-21 18:46:00,69.6,52.0,30.30,WNW,292,7.0,13.1,53,0.00,,,0.00,Rainwise IP-100,2013-06-21 22:46:00,
2013-06-21 18:51:00,69.3,52.0,30.30,WNW,292,7.7,17.3,54,0.00,,,0.00,Rainwise IP-100,2013-06-21 22:51:00,
2013-06-21 18:56:00,69.1,51.0,30.30,WNW,292,6.3,12.8,54,0.00,,,0.00,Rainwise IP-100,2013-06-21 22:56:00,
2013-06-21 19:01:00,68.9,52.0,30.30,WNW,292,4.2,14.0,55,0.00,,,0.00,Rainwise IP-100,2013-06-21 23:01:00,
2013-06-21 19:06:00,68.7,52.0,30.30,WNW,292,9.1,12.1,56,0.00,,,0.00,Rainwise IP-100,2013-06-21 23:06:00,
2013-06-21 19:11:00,68.4,53.0,30.30,WNW,292,10.0,12.6,57,0.00,,,0.00,Rainwise IP-100,2013-06-21 23:11:00,
2013-06-21 19:16:00,68.0,53.0,30.31,WNW,292,4.4,13.1,58,0.00,,,0.00,Rainwise IP-100,2013-06-21 23:16:00,
2013-06-21 19:21:00,67.8,53.5,30.30,WNW,292,7.7,11.4,59,0.00,,,0.00,Rainwise IP-100,2013-06-21 23:21:00,
2013-06-21 19:26:00,67.6,53.0,30.31,West,270,6.8,11.4,59,0.00,,,0.00,Rainwise IP-100,2013-06-21 23:26:00,
2013-06-21 19:31:00,67.2,53.0,30.31,WNW,292,8.4,12.6,59,0.00,,,0.00,Rainwise IP-100,2013-06-21 23:31:00,
2013-06-21 19:36:00,67.0,53.0,30.31,West,270,5.1,13.3,60,0.00,,,0.00,Rainwise IP-100,2013-06-21 23:36:00,
2013-06-21 19:41:00,66.9,53.5,30.31,West,270,3.3,7.5,61,0.00,,,0.00,Rainwise IP-100,2013-06-21 23:41:00,
2013-06-21 19:46:00,66.8,53.5,30.31,SSE,157,2.6,10.3,62,0.00,,,0.00,Rainwise IP-100,2013-06-21 23:46:00,
2013-06-21 19:51:00,66.5,54.0,30.31,WNW,292,2.1,9.1,63,0.00,,,0.00,Rainwise IP-100,2013-06-21 23:51:00,
2013-06-21 19:56:00,66.3,54.0,30.31,WNW,292,5.6,8.6,64,0.00,,,0.00,Rainwise IP-100,2013-06-21 23:56:00,
2013-06-21 20:01:00,66.0,53.5,30.31,WNW,292,1.9,11.0,64,0.00,,,0.00,Rainwise IP-100,2013-06-22 00:01:00,
2013-06-21 20:06:00,65.8,54.0,30.31,WNW,292,3.3,11.7,65,0.00,,,0.00,Rainwise IP-100,2013-06-22 00:06:00,
2013-06-21 20:11:00,65.7,53.5,30.31,WNW,292,4.0,10.7,65,0.00,,,0.00,Rainwise IP-100,2013-06-22 00:11:00,
2013-06-21 20:16:00,65.6,54.0,30.31,WNW,292,6.8,12.8,66,0.00,,,0.00,Rainwise IP-100,2013-06-22 00:16:00,
2013-06-21 20:21:00,65.5,54.0,30.31,West,270,4.2,9.8,67,0.00,,,0.00,Rainwise IP-100,2013-06-22 00:21:00,
2013-06-21 20:26:00,65.3,54.5,30.31,WNW,292,7.2,12.8,68,0.00,,,0.00,Rainwise IP-100,2013-06-22 00:26:00,
2013-06-21 20:31:00,65.3,54.5,30.31,WSW,247,5.6,10.5,68,0.00,,,0.00,Rainwise IP-100,2013-06-22 00:31:00,
2013-06-21 20:36:00,65.2,54.5,30.31,West,270,2.6,11.9,69,0.00,,,0.00,Rainwise IP-100,2013-06-22 00:36:00,
2013-06-21 20:41:00,65.0,54.5,30.31,West,270,5.8,9.3,70,0.00,,,0.00,Rainwise IP-100,2013-06-22 00:41:00,
2013-06-21 20:46:00,64.9,55.0,30.31,WNW,292,3.5,8.6,71,0.00,,,0.00,Rainwise IP-100,2013-06-22 00:46:00,
2013-06-21 20:51:00,64.8,55.0,30.31,SSW,202,2.6,9.6,71,0.00,,,0.00,Rainwise IP-100,2013-06-22 00:51:00,
2013-06-21 20:56:00,64.7,55.0,30.32,WNW,292,3.5,8.6,72,0.00,,,0.00,Rainwise IP-100,2013-06-22 00:56:00,
2013-06-21 21:01:00,64.5,55.0,30.32,WNW,292,5.1,7.2,72,0.00,,,0.00,Rainwise IP-100,2013-06-22 01:01:00,
2013-06-21 21:06:00,64.4,56.0,30.31,WSW,247,2.6,9.3,73,0.00,,,0.00,Rainwise IP-100,2013-06-22 01:06:00,
2013-06-21 21:11:00,64.4,56.0,30.31,WSW,247,4.7,7.7,73,0.00,,,0.00,Rainwise IP-100,2013-06-22 01:11:00,
2013-06-21 21:16:00,64.4,56.0,30.32,WNW,292,5.8,8.6,73,0.00,,,0.00,Rainwise IP-100,2013-06-22 01:16:00,
2013-06-21 21:21:00,64.4,56.0,30.32,WNW,292,7.5,8.9,73,0.00,,,0.00,Rainwise IP-100,2013-06-22 01:21:00,
2013-06-21 21:26:00,64.4,56.0,30.32,West,270,2.8,10.0,73,0.00,,,0.00,Rainwise IP-100,2013-06-22 01:26:00,
2013-06-21 21:31:00,64.4,56.0,30.32,West,270,3.7,10.0,73,0.00,,,0.00,Rainwise IP-100,2013-06-22 01:31:00,
2013-06-21 21:36:00,64.4,55.0,30.32,WNW,292,6.8,10.3,72,0.00,,,0.00,Rainwise IP-100,2013-06-22 01:36:00,
2013-06-21 21:41:00,64.4,55.0,30.32,West,270,4.9,10.0,72,0.00,,,0.00,Rainwise IP-100,2013-06-22 01:41:00,
2013-06-21 21:46:00,64.4,56.0,30.32,WNW,292,4.2,11.7,73,0.00,,,0.00,Rainwise IP-100,2013-06-22 01:46:00,
2013-06-21 21:51:00,64.4,56.0,30.32,WNW,292,4.4,11.7,73,0.00,,,0.00,Rainwise IP-100,2013-06-22 01:51:00,
2013-06-21 21:56:00,64.4,56.0,30.31,WNW,292,7.5,11.9,74,0.00,,,0.00,Rainwise IP-100,2013-06-22 01:56:00,
2013-06-21 22:01:00,64.4,56.0,30.31,West,270,9.8,11.0,74,0.00,,,0.00,Rainwise IP-100,2013-06-22 02:01:00,
2013-06-21 22:06:00,64.4,56.5,30.31,West,270,4.4,10.3,75,0.00,,,0.00,Rainwise IP-100,2013-06-22 02:06:00,
2013-06-21 22:11:00,64.3,56.5,30.31,SSW,202,3.7,9.3,75,0.00,,,0.00,Rainwise IP-100,2013-06-22 02:11:00,
2013-06-21 22:16:00,64.2,56.5,30.31,West,270,3.5,9.3,76,0.00,,,0.00,Rainwise IP-100,2013-06-22 02:16:00,
2013-06-21 22:21:00,64.2,56.5,30.31,WNW,292,1.9,12.8,76,0.00,,,0.00,Rainwise IP-100,2013-06-22 02:21:00,
2013-06-21 22:26:00,64.2,56.5,30.31,WNW,292,11.4,15.6,77,0.00,,,0.00,Rainwise IP-100,2013-06-22 02:26:00,
2013-06-21 22:31:00,64.2,56.5,30.31,WNW,292,7.0,14.9,77,0.00,,,0.00,Rainwise IP-100,2013-06-22 02:31:00,
2013-06-21 22:36:00,64.2,56.5,30.31,WNW,292,3.3,11.7,77,0.00,,,0.00,Rainwise IP-100,2013-06-22 02:36:00,
2013-06-21 22:41:00,64.2,56.5,30.31,West,270,4.9,9.8,77,0.00,,,0.00,Rainwise IP-100,2013-06-22 02:41:00,
2013-06-21 22:46:00,64.1,57.0,30.31,West,270,5.4,12.4,78,0.00,,,0.00,Rainwise IP-100,2013-06-22 02:46:00,
2013-06-21 22:51:00,64.1,57.0,30.31,WNW,292,6.3,9.1,78,0.00,,,0.00,Rainwise IP-100,2013-06-22 02:51:00,
2013-06-21 22:56:00,64.1,57.0,30.31,WNW,292,3.7,11.4,78,0.00,,,0.00,Rainwise IP-100,2013-06-22 02:56:00,
2013-06-21 23:01:00,64.1,57.0,30.31,WNW,292,5.8,9.1,78,0.00,,,0.00,Rainwise IP-100,2013-06-22 03:01:00,
2013-06-21 23:06:00,64.1,57.0,30.31,West,270,2.6,9.6,78,0.00,,,0.00,Rainwise IP-100,2013-06-22 03:06:00,
2013-06-21 23:11:00,64.1,57.0,30.32,WNW,292,5.8,11.9,78,0.00,,,0.00,Rainwise IP-100,2013-06-22 03:11:00,
2013-06-21 23:16:00,64.0,57.0,30.31,WNW,292,2.6,9.8,78,0.00,,,0.00,Rainwise IP-100,2013-06-22 03:16:00,
2013-06-21 23:21:00,64.0,57.0,30.31,WNW,292,3.0,6.5,78,0.00,,,0.00,Rainwise IP-100,2013-06-22 03:21:00,
2013-06-21 23:26:00,64.0,57.0,30.31,WNW,292,3.7,9.6,79,0.00,,,0.00,Rainwise IP-100,2013-06-22 03:26:00,
2013-06-21 23:31:00,63.9,57.5,30.31,WSW,247,3.7,9.6,80,0.00,,,0.00,Rainwise IP-100,2013-06-22 03:31:00,
2013-06-21 23:36:00,63.8,57.5,30.31,West,270,4.7,8.4,80,0.00,,,0.00,Rainwise IP-100,2013-06-22 03:36:00,
2013-06-21 23:41:00,63.8,57.5,30.31,WNW,292,3.0,9.6,80,0.00,,,0.00,Rainwise IP-100,2013-06-22 03:41:00,
2013-06-21 23:46:00,63.7,57.5,30.31,West,270,7.5,8.4,81,0.00,,,0.00,Rainwise IP-100,2013-06-22 03:46:00,
2013-06-21 23:51:00,63.7,57.5,30.31,WNW,292,4.0,7.7,81,0.00,,,0.00,Rainwise IP-100,2013-06-22 03:51:00,
2013-06-21 23:56:00,63.8,58.0,30.30,WNW,292,5.8,9.3,81,0.00,,,0.00,Rainwise IP-100,2013-06-22 03:56:00,